Location: Briis
(48.6240°N, 2.1211°E)
Time: 17:39:30
(UTC+00:00)

PAYLOAD A - Pass Details

Date: 25 September 2020
Orbit: 691 x 832 km, 98.3° (Epoch: 21 October)

Event Time Altitude Azimuth Distance (km) Brightness Sun altitude
Rises 03:45:21 0° 15° (NNE) 3,083 7.7 -19.8°
Reaches altitude 10° 03:47:37 10° 18° (NNE) 2,158 6.9 -19.4°
Maximum altitude 03:52:18 72° 103° (ESE) 733 4.0 -18.7°
Drops below altitude 10° 03:57:00 10° 188° (S) 2,158 6.1 -18.0°
Enters shadow 03:57:12 - 188° (S) 2,240 6.1 -17.9°
